N34QE PANN-PAEN

Flight info

Callsign N34QE
Flight time N/A
Altitude 24000
Route CRISL MISTC/N0412F410 SITWE STONQ ZINAM
Aircraft HDJT/L-SABDGRWY/H

Departure

Time N/A
Airport Nenana Municipal Airport (PANN)

Arrival

Time 2026-05-04 00:42
Airport Kenai Municipal Airport (PAEN)
Time Latitude Longitude Altitude Speed Heading
2026-05-03 23:40 64.15186 -149.33237 24166 ft 267 kts 204°
2026-05-03 23:40 64.13322 -149.34355 24169 ft 286 kts 203°
2026-05-03 23:40 64.11349 -149.35558 24176 ft 300 kts 204°
2026-05-03 23:41 64.09307 -149.36883 24171 ft 310 kts 204°
2026-05-03 23:41 64.07205 -149.38247 24172 ft 316 kts 203°
2026-05-03 23:41 64.05090 -149.39586 24172 ft 316 kts 203°
2026-05-03 23:41 64.02970 -149.40927 24172 ft 315 kts 203°
2026-05-03 23:42 64.00856 -149.42276 24173 ft 315 kts 203°
2026-05-03 23:42 63.98741 -149.43622 24152 ft 314 kts 204°
2026-05-03 23:42 63.96641 -149.44944 24162 ft 312 kts 203°
2026-05-03 23:42 63.94542 -149.46258 24166 ft 313 kts 204°
2026-05-03 23:43 63.92450 -149.47604 24168 ft 312 kts 204°
2026-05-03 23:43 63.90377 -149.48918 24166 ft 313 kts 203°
2026-05-03 23:43 63.88280 -149.50228 24166 ft 313 kts 203°
2026-05-03 23:43 63.86183 -149.51538 24166 ft 313 kts 203°
2026-05-03 23:44 63.84101 -149.52940 24165 ft 310 kts 207°
2026-05-03 23:44 63.82128 -149.54809 24169 ft 306 kts 212°
2026-05-03 23:44 63.80272 -149.57118 24176 ft 303 kts 217°
2026-05-03 23:44 63.78558 -149.59824 24177 ft 300 kts 221°
2026-05-03 23:45 63.76984 -149.62907 24175 ft 299 kts 226°
2026-05-03 23:45 63.75567 -149.66332 24177 ft 298 kts 231°
2026-05-03 23:45 63.74319 -149.70062 24179 ft 298 kts 236°
2026-05-03 23:45 63.73164 -149.73943 24174 ft 298 kts 235°
2026-05-03 23:46 63.71991 -149.77805 24156 ft 298 kts 235°
2026-05-03 23:46 63.70826 -149.81642 24175 ft 296 kts 235°
2026-05-03 23:46 63.69668 -149.85479 24170 ft 296 kts 235°
2026-05-03 23:46 63.68508 -149.89318 24168 ft 296 kts 235°
2026-05-03 23:47 63.67344 -149.93147 24161 ft 296 kts 235°
2026-05-03 23:47 63.66180 -149.96978 24166 ft 296 kts 235°
2026-05-03 23:47 63.65018 -150.00793 24174 ft 296 kts 235°
2026-05-03 23:47 63.63852 -150.04624 24170 ft 296 kts 235°
2026-05-03 23:48 63.62686 -150.08451 24158 ft 296 kts 235°
2026-05-03 23:48 63.61518 -150.12253 24153 ft 295 kts 234°
2026-05-03 23:48 63.60350 -150.16058 24164 ft 296 kts 235°
2026-05-03 23:48 63.59183 -150.19865 24163 ft 296 kts 235°
2026-05-03 23:49 63.58013 -150.23670 24210 ft 297 kts 234°
2026-05-03 23:49 63.56823 -150.27511 24165 ft 302 kts 234°
2026-05-03 23:49 63.55633 -150.31393 24164 ft 302 kts 234°
2026-05-03 23:49 63.54441 -150.35259 24164 ft 301 kts 234°
2026-05-03 23:50 63.53259 -150.39069 24162 ft 301 kts 234°
2026-05-03 23:50 63.52451 -150.41669 24165 ft 301 kts 234°
2026-05-03 23:50 63.50869 -150.46763 24151 ft 299 kts 234°
2026-05-03 23:50 63.49685 -150.50570 24159 ft 298 kts 234°
2026-05-03 23:51 63.48497 -150.54377 24155 ft 298 kts 234°
2026-05-03 23:51 63.47309 -150.58181 24139 ft 298 kts 234°
2026-05-03 23:51 63.46124 -150.61972 24135 ft 297 kts 234°
2026-05-03 23:51 63.44937 -150.65760 24136 ft 298 kts 234°
2026-05-03 23:52 63.43746 -150.69554 24137 ft 298 kts 234°
2026-05-03 23:52 63.42556 -150.73339 24135 ft 298 kts 234°
2026-05-03 23:52 63.41363 -150.77130 24135 ft 298 kts 233°
2026-05-03 23:52 63.40169 -150.80912 24135 ft 298 kts 233°
2026-05-03 23:53 63.38973 -150.84697 24140 ft 298 kts 234°
2026-05-03 23:53 63.37796 -150.88418 24141 ft 298 kts 233°
2026-05-03 23:53 63.36600 -150.92191 24142 ft 298 kts 233°
2026-05-03 23:53 63.35405 -150.95956 24142 ft 298 kts 233°
2026-05-03 23:54 63.34209 -150.99717 24138 ft 297 kts 233°
2026-05-03 23:54 63.33012 -151.03474 24140 ft 298 kts 233°
2026-05-03 23:54 63.31810 -151.07237 24141 ft 298 kts 233°
2026-05-03 23:54 63.30613 -151.10987 24150 ft 297 kts 233°
2026-05-03 23:55 63.29419 -151.14715 24152 ft 296 kts 233°
2026-05-03 23:55 63.28223 -151.18443 24132 ft 296 kts 233°
2026-05-03 23:55 63.27028 -151.22163 24132 ft 296 kts 233°
2026-05-03 23:55 63.25831 -151.25884 24132 ft 296 kts 233°
2026-05-03 23:56 63.24633 -151.29602 24127 ft 296 kts 233°
2026-05-03 23:56 63.23435 -151.33313 24129 ft 296 kts 233°
2026-05-03 23:56 63.22237 -151.37016 24134 ft 296 kts 233°
2026-05-03 23:56 63.21036 -151.40724 24133 ft 295 kts 233°
2026-05-03 23:57 63.19839 -151.44416 24131 ft 296 kts 233°
2026-05-03 23:57 63.18635 -151.48123 24129 ft 296 kts 233°
2026-05-03 23:57 63.17445 -151.51780 24136 ft 296 kts 233°
2026-05-03 23:57 63.16238 -151.55480 24133 ft 295 kts 233°
2026-05-03 23:58 63.15034 -151.59171 24131 ft 296 kts 232°
2026-05-03 23:58 63.13828 -151.62856 24138 ft 295 kts 232°
2026-05-03 23:58 63.12621 -151.66542 24136 ft 296 kts 232°
2026-05-03 23:58 63.11412 -151.70228 24137 ft 296 kts 232°
2026-05-03 23:59 63.10205 -151.73901 24128 ft 295 kts 232°
2026-05-03 23:59 63.09002 -151.77555 24136 ft 294 kts 232°
2026-05-03 23:59 63.07790 -151.81233 24123 ft 299 kts 232°
2026-05-03 23:59 63.06572 -151.84916 24127 ft 302 kts 232°
2026-05-04 00:00 63.05336 -151.88654 24132 ft 301 kts 232°
2026-05-04 00:00 63.04102 -151.92381 24135 ft 301 kts 232°
2026-05-04 00:00 63.02867 -151.96101 24130 ft 301 kts 232°
2026-05-04 00:00 63.01631 -151.99818 24130 ft 301 kts 232°
2026-05-04 00:01 63.00393 -152.03540 24131 ft 301 kts 232°
2026-05-04 00:01 62.99152 -152.07262 24132 ft 301 kts 232°
2026-05-04 00:01 62.97912 -152.10972 24138 ft 301 kts 232°
2026-05-04 00:01 62.96672 -152.14679 24137 ft 301 kts 232°
2026-05-04 00:02 62.95431 -152.18383 24142 ft 301 kts 232°
2026-05-04 00:02 62.94188 -152.22084 24140 ft 301 kts 232°
2026-05-04 00:02 62.92944 -152.25785 24139 ft 301 kts 232°
2026-05-04 00:02 62.91698 -152.29486 24138 ft 301 kts 232°
2026-05-04 00:03 62.90452 -152.33178 24137 ft 301 kts 232°
2026-05-04 00:03 62.89221 -152.36822 24130 ft 300 kts 231°
2026-05-04 00:03 62.87964 -152.40540 24114 ft 299 kts 231°
2026-05-04 00:03 62.86720 -152.44208 24115 ft 300 kts 231°
2026-05-04 00:04 62.85477 -152.47867 24113 ft 300 kts 231°
2026-05-04 00:04 62.84233 -152.51527 24118 ft 300 kts 231°
2026-05-04 00:04 62.83005 -152.55134 24114 ft 299 kts 231°
2026-05-04 00:04 62.81742 -152.58833 24113 ft 299 kts 231°
2026-05-04 00:05 62.80496 -152.62482 24119 ft 299 kts 231°
2026-05-04 00:05 62.79249 -152.66132 24127 ft 300 kts 231°
2026-05-04 00:05 62.78013 -152.69731 24126 ft 299 kts 231°
2026-05-04 00:05 62.76675 -152.73203 24130 ft 299 kts 226°
2026-05-04 00:06 62.75171 -152.76330 24128 ft 299 kts 221°
2026-05-04 00:06 62.73522 -152.79096 24130 ft 299 kts 216°
2026-05-04 00:06 62.71740 -152.81471 24135 ft 301 kts 211°
2026-05-04 00:06 62.69843 -152.83428 24139 ft 303 kts 207°
2026-05-04 00:07 62.67838 -152.84945 24135 ft 306 kts 202°
2026-05-04 00:07 62.65749 -152.85995 24139 ft 310 kts 197°
2026-05-04 00:07 62.63608 -152.86721 24141 ft 311 kts 196°
2026-05-04 00:07 62.61471 -152.87456 24147 ft 310 kts 197°
2026-05-04 00:08 62.59340 -152.88244 24136 ft 311 kts 196°
2026-05-04 00:08 62.57199 -152.88963 24134 ft 311 kts 196°
2026-05-04 00:08 62.55783 -152.89421 24132 ft 310 kts 196°
2026-05-04 00:08 62.53649 -152.90153 24126 ft 311 kts 197°
2026-05-04 00:09 62.51513 -152.90942 24137 ft 310 kts 197°
2026-05-04 00:09 62.49377 -152.91712 24141 ft 311 kts 196°
2026-05-04 00:09 62.47237 -152.92382 24147 ft 311 kts 195°
2026-05-04 00:09 62.44397 -152.93319 24166 ft 311 kts 197°
2026-05-04 00:10 62.42955 -152.93858 24157 ft 310 kts 197°
2026-05-04 00:10 62.40823 -152.94652 24151 ft 312 kts 197°
2026-05-04 00:10 62.38679 -152.95367 24152 ft 312 kts 196°
2026-05-04 00:10 62.36542 -152.96094 24156 ft 309 kts 197°
2026-05-04 00:11 62.34413 -152.96791 24156 ft 310 kts 195°
2026-05-04 00:11 62.32286 -152.97464 24155 ft 308 kts 196°
2026-05-04 00:11 62.30167 -152.98224 24153 ft 308 kts 197°
2026-05-04 00:11 62.28050 -152.98995 24157 ft 309 kts 196°
2026-05-04 00:12 62.25939 -152.99548 24156 ft 312 kts 191°
2026-05-04 00:12 62.23749 -152.99593 24167 ft 317 kts 186°
2026-05-04 00:12 62.21532 -152.99116 24157 ft 322 kts 182°
2026-05-04 00:12 62.19311 -152.98502 24150 ft 321 kts 183°
2026-05-04 00:13 62.17093 -152.97960 24156 ft 321 kts 183°
2026-05-04 00:13 62.14873 -152.97395 24134 ft 320 kts 184°
2026-05-04 00:13 62.12664 -152.96822 24160 ft 319 kts 184°
2026-05-04 00:13 62.10452 -152.96293 24160 ft 320 kts 184°
2026-05-04 00:14 62.08245 -152.95702 24162 ft 320 kts 183°
2026-05-04 00:14 62.06036 -152.95139 24162 ft 320 kts 184°
2026-05-04 00:14 62.03816 -152.94597 24158 ft 320 kts 183°
2026-05-04 00:14 62.01609 -152.93964 24157 ft 321 kts 182°
2026-05-04 00:15 61.99430 -152.93389 24153 ft 319 kts 184°
2026-05-04 00:15 61.97219 -152.92904 24156 ft 319 kts 184°
2026-05-04 00:15 61.95009 -152.92360 24152 ft 320 kts 183°
2026-05-04 00:15 61.92792 -152.91738 24156 ft 321 kts 183°
2026-05-04 00:16 61.90577 -152.91162 24150 ft 320 kts 184°
2026-05-04 00:16 61.88362 -152.90675 24173 ft 321 kts 184°
2026-05-04 00:16 61.86143 -152.90104 24150 ft 320 kts 184°
2026-05-04 00:16 61.83933 -152.89526 24155 ft 320 kts 183°
2026-05-04 00:17 61.81720 -152.88991 24164 ft 320 kts 184°
2026-05-04 00:17 61.79503 -152.88474 24148 ft 322 kts 184°
2026-05-04 00:17 61.77275 -152.87842 24150 ft 321 kts 183°
2026-05-04 00:17 61.75056 -152.87269 24146 ft 320 kts 184°
2026-05-04 00:18 61.72843 -152.86751 24149 ft 321 kts 184°
2026-05-04 00:18 61.70627 -152.86213 24149 ft 320 kts 184°
2026-05-04 00:18 61.68415 -152.85635 24157 ft 320 kts 184°
2026-05-04 00:18 61.66230 -152.85160 24155 ft 319 kts 184°
2026-05-04 00:19 61.64017 -152.84606 24144 ft 320 kts 183°
2026-05-04 00:19 61.61802 -152.84010 24146 ft 321 kts 182°
2026-05-04 00:19 61.59565 -152.83429 24134 ft 326 kts 182°
2026-05-04 00:19 61.57310 -152.82867 24139 ft 326 kts 182°
2026-05-04 00:20 61.55052 -152.82345 24132 ft 326 kts 183°
2026-05-04 00:20 61.52790 -152.81825 24147 ft 326 kts 183°
2026-05-04 00:20 61.50542 -152.81263 24145 ft 326 kts 182°
2026-05-04 00:20 61.48293 -152.80661 24140 ft 326 kts 182°
2026-05-04 00:21 61.46040 -152.80062 24149 ft 326 kts 182°
2026-05-04 00:21 61.43822 -152.79561 24142 ft 325 kts 184°
2026-05-04 00:21 61.41567 -152.79077 24141 ft 326 kts 182°
2026-05-04 00:21 61.39312 -152.78492 24149 ft 327 kts 182°
2026-05-04 00:22 61.37055 -152.77895 23938 ft 327 kts 182°
2026-05-04 00:22 61.34807 -152.77357 23568 ft 324 kts 183°
2026-05-04 00:22 61.32570 -152.76881 23155 ft 322 kts 182°
2026-05-04 00:22 61.30339 -152.76325 22729 ft 322 kts 181°
2026-05-04 00:23 61.28124 -152.75745 22330 ft 319 kts 181°
2026-05-04 00:23 61.25925 -152.74972 21931 ft 324 kts 175°
2026-05-04 00:23 61.23757 -152.73603 21539 ft 328 kts 169°
2026-05-04 00:23 61.21654 -152.71656 21139 ft 332 kts 163°
2026-05-04 00:24 61.19583 -152.69546 20752 ft 330 kts 163°
2026-05-04 00:24 61.17517 -152.67512 20378 ft 328 kts 164°
2026-05-04 00:24 61.15458 -152.65484 20004 ft 326 kts 163°
2026-05-04 00:24 61.13418 -152.63451 19582 ft 325 kts 164°
2026-05-04 00:25 61.11378 -152.61420 19216 ft 325 kts 163°
2026-05-04 00:25 61.09344 -152.59421 18857 ft 323 kts 164°
2026-05-04 00:25 61.07324 -152.57431 18498 ft 321 kts 163°
2026-05-04 00:25 61.05306 -152.55442 18095 ft 320 kts 163°
2026-05-04 00:26 61.03305 -152.53452 17686 ft 318 kts 162°
2026-05-04 00:26 61.01307 -152.51465 17280 ft 317 kts 162°
2026-05-04 00:26 60.99350 -152.49539 16884 ft 315 kts 162°
2026-05-04 00:26 60.97370 -152.47605 16487 ft 314 kts 161°
2026-05-04 00:27 60.95401 -152.45672 16106 ft 313 kts 161°
2026-05-04 00:27 60.93431 -152.43777 15712 ft 312 kts 161°
2026-05-04 00:27 60.91476 -152.41840 15347 ft 311 kts 160°
2026-05-04 00:27 60.89537 -152.39893 14974 ft 309 kts 160°
2026-05-04 00:28 60.87594 -152.38029 14600 ft 308 kts 160°
2026-05-04 00:28 60.85654 -152.36168 14246 ft 307 kts 159°
2026-05-04 00:28 60.83725 -152.34287 13869 ft 306 kts 158°
2026-05-04 00:28 60.81799 -152.32418 13458 ft 305 kts 159°
2026-05-04 00:29 60.79883 -152.30550 13054 ft 304 kts 157°
2026-05-04 00:29 60.77986 -152.28688 12633 ft 302 kts 159°
2026-05-04 00:29 60.76082 -152.26862 12237 ft 302 kts 158°
2026-05-04 00:29 60.74187 -152.25039 11847 ft 301 kts 158°
2026-05-04 00:30 60.72305 -152.23215 11457 ft 299 kts 157°
2026-05-04 00:30 60.70430 -152.21404 11072 ft 294 kts 157°
2026-05-04 00:30 60.68633 -152.19675 10694 ft 278 kts 157°
2026-05-04 00:30 60.66909 -152.18022 10319 ft 271 kts 156°
2026-05-04 00:31 60.65223 -152.16290 9949 ft 272 kts 149°
2026-05-04 00:31 60.63748 -152.13857 9534 ft 273 kts 136°
2026-05-04 00:31 60.62580 -152.10809 9135 ft 274 kts 123°
2026-05-04 00:31 60.61782 -152.07296 8736 ft 274 kts 109°
2026-05-04 00:32 60.61386 -152.03511 8342 ft 273 kts 100°
2026-05-04 00:32 60.60729 -151.99956 7955 ft 268 kts 125°
2026-05-04 00:32 60.59489 -151.97143 7576 ft 266 kts 135°
2026-05-04 00:32 60.58236 -151.94463 7201 ft 264 kts 129°
2026-05-04 00:33 60.57138 -151.91459 6820 ft 264 kts 123°
2026-05-04 00:33 60.55081 -151.85302 6049 ft 263 kts 124°
2026-05-04 00:33 60.54005 -151.82303 5657 ft 262 kts 124°
2026-05-04 00:34 60.52950 -151.79323 5271 ft 257 kts 126°
2026-05-04 00:34 60.51910 -151.76364 4887 ft 257 kts 126°
2026-05-04 00:34 60.50878 -151.73433 4486 ft 255 kts 125°
2026-05-04 00:34 60.49851 -151.70530 4092 ft 251 kts 124°
2026-05-04 00:35 60.48830 -151.67644 3702 ft 253 kts 123°
2026-05-04 00:35 60.47811 -151.64772 3318 ft 250 kts 123°
2026-05-04 00:35 60.46793 -151.61897 2908 ft 251 kts 123°
2026-05-04 00:35 60.45773 -151.59031 2515 ft 250 kts 123°
2026-05-04 00:36 60.44758 -151.56177 2115 ft 249 kts 122°
2026-05-04 00:36 60.43748 -151.53337 1984 ft 248 kts 123°
2026-05-04 00:36 60.42735 -151.50493 1979 ft 250 kts 123°
2026-05-04 00:36 60.41716 -151.47639 1981 ft 249 kts 122°
2026-05-04 00:37 60.40755 -151.44737 1976 ft 247 kts 112°
2026-05-04 00:37 60.40466 -151.41439 1979 ft 241 kts 82°
2026-05-04 00:37 60.41067 -151.38350 1989 ft 233 kts 51°
2026-05-04 00:37 60.42327 -151.36517 1989 ft 220 kts 19°
2026-05-04 00:38 60.43819 -151.36331 1986 ft 214 kts 357°
2026-05-04 00:38 60.45274 -151.36573 1986 ft 205 kts
2026-05-04 00:38 60.46666 -151.36431 1987 ft 196 kts 11°
2026-05-04 00:38 60.47958 -151.35837 2004 ft 186 kts 22°
2026-05-04 00:39 60.49100 -151.34693 1877 ft 183 kts 32°
2026-05-04 00:39 60.50184 -151.33332 1631 ft 187 kts 33°
2026-05-04 00:39 60.51292 -151.31958 1369 ft 183 kts 32°
2026-05-04 00:39 60.52296 -151.30740 1114 ft 152 kts 32°
2026-05-04 00:40 60.53127 -151.29724 885 ft 129 kts 32°
2026-05-04 00:40 60.53854 -151.28858 710 ft 112 kts 32°
2026-05-04 00:40 60.54513 -151.28037 553 ft 110 kts 32°
2026-05-04 00:40 60.55170 -151.27246 411 ft 107 kts 31°
2026-05-04 00:41 60.55777 -151.26494 244 ft 99 kts 31°
2026-05-04 00:41 60.56364 -151.25765 125 ft 97 kts 32°
2026-05-04 00:41 60.56895 -151.25131 94 ft 76 kts 32°
2026-05-04 00:41 60.57328 -151.24601 97 ft 68 kts 31°
2026-05-04 00:42 60.57676 -151.24178 97 ft 48 kts 31°
2026-05-04 00:42 60.57897 -151.23910 101 ft 25 kts 31°
2026-05-04 00:42 60.58031 -151.23714 101 ft 19 kts 47°
2026-05-04 00:42 60.58021 -151.23507 99 ft 16 kts 135°
2026-05-04 00:43 60.57916 -151.23488 98 ft 17 kts 208°
2026-05-04 00:43 60.57809 -151.23614 97 ft 18 kts 210°
2026-05-04 00:43 60.57694 -151.23754 95 ft 20 kts 211°
2026-05-04 00:43 60.57571 -151.23904 94 ft 21 kts 210°
2026-05-04 00:44 60.57443 -151.24061 95 ft 21 kts 212°
2026-05-04 00:44 60.57321 -151.24213 95 ft 19 kts 210°
2026-05-04 00:44 60.57223 -151.24281 95 ft 14 kts 150°
2026-05-04 00:44 60.57152 -151.24174 96 ft 13 kts 186°
2026-05-04 00:45 60.57077 -151.24192 94 ft 11 kts 114°
2026-05-04 00:45 60.57081 -151.24064 94 ft 7 kts 36°
2026-05-04 00:45 60.57090 -151.24053 96 ft 0 kts 28°